Weather History for Athens Eleftherios, Greece

Change the Weather History Date:

Tuesday, October 9, 2012

  Actual Average (LGEL) Record (LGEL)
Temperature  
Mean Temperature 70 °F -  
Max Temperature 75 °F 75 °F 86 °F (1998)
Min Temperature 66 °F 60 °F 44 °F (2003)
Cooling Degree Days 6    
Growing Degree Days 20 (Base 50)    
Moisture  
Dew Point 57 °F    
Average Humidity 66    
Maximum Humidity 78    
Minimum Humidity 53    
Precipitation  
Precipitation 0.00 in - - ()
Sea Level Pressure  
Sea Level Pressure 29.90 in    
Wind  
Wind Speed 8 mph ()    
Max Wind Speed 17 mph    
Max Gust Speed -    
Visibility 6.2 miles    
Events      
Averages and records for this station are not official NWS values.
T = Trace of Precipitation, MM = Missing Value Source: Averaged Metar Reports

Daily Weather History Graph

Daily Weather History Graph

Search for Another Location

Airport:

Trip Planner

Search our weather history database for the weather conditions in past years. The results will help you decide how hot, cold, wet, or windy it might be!

Date:

Astronomy

Oct. 09, 2012 Rise Set
Actual Time 7:27 AM EEST 6:54 PM EEST
Civil Twilight 7:00 AM EEST 7:21 PM EEST
Nautical Twilight 6:30 AM EEST 7:51 PM EEST
Astronomical Twilight 5:59 AM EEST 8:22 PM EEST
Moon 12:51 AM EEST (10/9) 3:05 PM EEST (10/9)
Length of Visible Light 12h 20m
Length of Day
11h 27m
Last Quarter, 40% of the Moon is Illuminated
Oct 9
Last Quarter
Oct 15
New
Oct 22
First Quarter
Oct 29
Full
Nov 7
Last Quarter

Hourly Weather History & Observations

Time (EEST) Temp. Dew Point Humidity Pressure Visibility Wind Dir Wind Speed Gust Speed Precip Events Conditions
12:20 AM 68.0 °F 60.8 °F 78% 29.89 in 6.2 mi SSW 2.3 mph - N/A   Scattered Clouds
12:50 AM 68.0 °F 59.0 °F 73% 29.89 in 6.2 mi West 3.5 mph - N/A   Scattered Clouds
1:20 AM 68.0 °F 59.0 °F 73% 29.89 in 6.2 mi NW 1.2 mph - N/A   Scattered Clouds
1:50 AM 66.2 °F 59.0 °F 78% 29.89 in 6.2 mi Variable 1.2 mph - N/A   Scattered Clouds
2:20 AM 66.2 °F 55.4 °F 68% 29.92 in 6.2 mi Variable 1.2 mph - N/A   Scattered Clouds
2:50 AM 69.8 °F 53.6 °F 56% 29.89 in 6.2 mi NE 9.2 mph - N/A   Scattered Clouds
3:20 AM 68.0 °F 55.4 °F 64% 29.89 in 6.2 mi NNE 9.2 mph - N/A   Partly Cloudy
3:50 AM 68.0 °F 57.2 °F 68% 29.89 in 6.2 mi NNE 9.2 mph - N/A   Partly Cloudy
4:20 AM 68.0 °F 57.2 °F 68% 29.89 in 6.2 mi NNE 6.9 mph - N/A   Partly Cloudy
4:50 AM 68.0 °F 57.2 °F 68% 29.89 in 6.2 mi NE 9.2 mph - N/A   Partly Cloudy
5:20 AM 66.2 °F 57.2 °F 73% 29.89 in 6.2 mi NE 10.4 mph - N/A   Partly Cloudy
5:50 AM 68.0 °F 57.2 °F 68% 29.89 in 6.2 mi NNE 6.9 mph - N/A   Partly Cloudy
6:20 AM 66.2 °F 57.2 °F 73% 29.89 in - NNE 6.9 mph - N/A   Clear
6:50 AM 66.2 °F 57.2 °F 73% 29.89 in 6.2 mi NNE 5.8 mph - N/A   Scattered Clouds
7:20 AM 68.0 °F 57.2 °F 68% 29.89 in 6.2 mi NNE 8.1 mph - N/A   Scattered Clouds
7:50 AM 68.0 °F 57.2 °F 68% 29.92 in 6.2 mi NNE 8.1 mph - N/A   Scattered Clouds
8:20 AM 68.0 °F 57.2 °F 68% 29.92 in 6.2 mi NNE 10.4 mph - N/A   Scattered Clouds
8:50 AM 68.0 °F 57.2 °F 68% 29.92 in 6.2 mi NNE 10.4 mph - N/A   Scattered Clouds
9:20 AM 69.8 °F 59.0 °F 68% 29.92 in 6.2 mi North 11.5 mph - N/A   Scattered Clouds
9:50 AM 69.8 °F 59.0 °F 68% 29.92 in 6.2 mi NNE 15.0 mph - N/A   Scattered Clouds
10:20 AM 69.8 °F 59.0 °F 68% 29.95 in 6.2 mi NNE 16.1 mph - N/A   Scattered Clouds
10:50 AM 69.8 °F 59.0 °F 68% 29.95 in 6.2 mi NNE 13.8 mph - N/A   Scattered Clouds
11:20 AM 71.6 °F 59.0 °F 64% 29.95 in 6.2 mi NNE 13.8 mph - N/A   Scattered Clouds
11:50 AM 71.6 °F 59.0 °F 64% 29.95 in 6.2 mi NNE 17.3 mph - N/A   Scattered Clouds
12:20 PM 71.6 °F 57.2 °F 60% 29.95 in 6.2 mi NNE 16.1 mph - N/A   Scattered Clouds
12:50 PM 71.6 °F 57.2 °F 60% 29.95 in 6.2 mi NNE 15.0 mph - N/A   Scattered Clouds
1:20 PM 73.4 °F 57.2 °F 57% 29.92 in 6.2 mi NE 15.0 mph - N/A   Scattered Clouds
1:50 PM 73.4 °F 57.2 °F 57% 29.92 in 6.2 mi NE 13.8 mph - N/A   Scattered Clouds
2:20 PM 73.4 °F 55.4 °F 53% 29.92 in 6.2 mi NNE 12.7 mph - N/A   Mostly Cloudy
2:50 PM 73.4 °F 55.4 °F 53% 29.89 in 6.2 mi NE 13.8 mph - N/A   Mostly Cloudy
3:20 PM 73.4 °F 57.2 °F 57% 29.89 in 6.2 mi NE 15.0 mph - N/A   Mostly Cloudy
3:50 PM 75.2 °F 57.2 °F 53% 29.89 in 6.2 mi NE 15.0 mph - N/A   Mostly Cloudy
4:20 PM 73.4 °F 57.2 °F 57% 29.89 in 6.2 mi NE 16.1 mph - N/A   Mostly Cloudy
4:50 PM 71.6 °F 57.2 °F 60% 29.89 in 6.2 mi NE 16.1 mph - N/A   Mostly Cloudy
5:20 PM 71.6 °F 57.2 °F 60% 29.89 in 6.2 mi NE 13.8 mph - N/A   Mostly Cloudy
5:50 PM 69.8 °F 57.2 °F 64% 29.89 in 6.2 mi NE 13.8 mph - N/A   Mostly Cloudy
6:20 PM 69.8 °F 57.2 °F 64% 29.89 in 6.2 mi NE 13.8 mph - N/A   Mostly Cloudy
6:50 PM 69.8 °F 57.2 °F 64% 29.89 in 6.2 mi NNE 13.8 mph - N/A   Mostly Cloudy
7:20 PM 68.0 °F 59.0 °F 73% 29.89 in 6.2 mi NNE 12.7 mph - N/A   Scattered Clouds
7:50 PM 68.0 °F 57.2 °F 68% 29.89 in 6.2 mi NNE 15.0 mph - N/A   Mostly Cloudy
8:20 PM 68.0 °F 57.2 °F 68% 29.89 in 6.2 mi NNE 16.1 mph - N/A   Mostly Cloudy
8:50 PM 68.0 °F 57.2 °F 68% 29.89 in 6.2 mi NNE 13.8 mph - N/A   Scattered Clouds
9:20 PM 68.0 °F 57.2 °F 68% 29.89 in 6.2 mi NNE 11.5 mph - N/A   Mostly Cloudy
9:50 PM 68.0 °F 57.2 °F 68% 29.89 in 6.2 mi NNE 13.8 mph - N/A   Mostly Cloudy
10:20 PM 68.0 °F 57.2 °F 68% 29.89 in 6.2 mi NNE 12.7 mph - N/A   Mostly Cloudy
10:50 PM 68.0 °F 57.2 °F 68% 29.89 in 6.2 mi NNE 9.2 mph - N/A   Mostly Cloudy
11:20 PM 68.0 °F 57.2 °F 68% 29.89 in 6.2 mi NNE 9.2 mph - N/A   Mostly Cloudy
11:50 PM 68.0 °F 57.2 °F 68% 29.89 in 6.2 mi NE 8.1 mph - N/A   Mostly Cloudy